contact:dominique.lefevre@mio.osupytheas.fr, maurice.libes@osupytheas.fr, didier.mallarino@osupytheas.fr
Project:EMSO http://www.emso-fr.org/EMSO-France
Depth: 2436.0 m
Title:EMSO Ligure Ouest : Data MII capteur MICROCAT
DateTime_Computer,Latitude,Longitude,Temperature,Conductivity,Pressure,DateTime_Instrument
DateTime_Computer,Latitude,Longitude,degC,S m-1,dbar,DateTime_Instrument
2019-05-17T07:23:08Z,42.805,6.029,13.2955,4.59962,2469.27,2019-5-17T09:23:22Z
2019-05-17T07:26:11Z,42.805,6.029,13.2956,4.59963,2469.26,2019-5-17T09:26:25Z
2019-05-17T07:29:14Z,42.805,6.029,13.2967,4.59961,2469.27,2019-5-17T09:29:28Z
2019-05-17T07:32:17Z,42.805,6.029,13.2954,4.59961,2469.26,2019-5-17T09:32:31Z
2019-05-17T07:35:20Z,42.805,6.029,13.2970,4.59966,2469.27,2019-5-17T09:35:34Z
2019-05-17T07:38:23Z,42.805,6.029,13.2961,4.59964,2469.223,2019-5-17T09:38:37Z
2019-05-17T07:41:26Z,42.805,6.029,13.2959,4.59966,2469.246,2019-5-17T09:41:40Z
2019-05-17T07:44:29Z,42.805,6.029,13.2964,4.59966,2469.237,2019-5-17T09:44:43Z
2019-05-17T07:47:33Z,42.805,6.029,13.2963,4.59971,2469.214,2019-5-17T09:47:47Z
2019-05-17T07:50:36Z,42.805,6.029,13.2961,4.59970,2469.223,2019-5-17T09:50:50Z
2019-05-17T07:53:39Z,42.805,6.029,13.2964,4.59969,2469.237,2019-5-17T09:53:53Z
2019-05-17T07:56:42Z,42.805,6.029,13.2966,4.59968,2469.214,2019-5-17T09:56:56Z
2019-05-17T07:59:45Z,42.805,6.029,13.2969,4.59973,2469.19,2019-5-17T09:59:59Z
2019-05-17T08:02:48Z,42.805,6.029,13.2972,4.59971,2469.26,2019-5-17T10:03:01Z
2019-05-17T08:05:50Z,42.805,6.029,13.2974,4.59967,2469.223,2019-5-17T10:06:04Z
2019-05-17T08:08:53Z,42.805,6.029,13.2967,4.59969,2469.223,2019-5-17T10:09:07Z
2019-05-17T08:11:56Z,42.805,6.029,13.2976,4.59971,2469.237,2019-5-17T10:12:10Z
2019-05-17T08:14:59Z,42.805,6.029,13.2974,4.59975,2469.214,2019-5-17T10:15:13Z
2019-05-17T08:18:02Z,42.805,6.029,13.2974,4.59974,2469.237,2019-5-17T10:18:16Z
2019-05-17T08:21:05Z,42.805,6.029,13.2971,4.59976,2469.237,2019-5-17T10:21:19Z
2019-05-17T08:24:08Z,42.805,6.029,13.2981,4.59981,2469.214,2019-5-17T10:24:22Z
2019-05-17T08:27:11Z,42.805,6.029,13.2969,4.59972,2469.214,2019-5-17T10:27:25Z
2019-05-17T08:30:14Z,42.805,6.029,13.2973,4.59982,2469.237,2019-5-17T10:30:28Z
2019-05-17T08:33:17Z,42.805,6.029,13.2976,4.59975,2469.2,2019-5-17T10:33:31Z
2019-05-17T08:36:20Z,42.805,6.029,13.2973,4.59976,2469.2,2019-5-17T10:36:34Z
2019-05-17T08:39:23Z,42.805,6.029,13.2975,4.59981,2469.176,2019-5-17T10:39:37Z
2019-05-17T08:42:26Z,42.805,6.029,13.2972,4.59975,2469.176,2019-5-17T10:42:40Z
2019-05-17T08:45:29Z,42.805,6.029,13.2971,4.59971,2469.223,2019-5-17T10:45:43Z
2019-05-17T08:48:32Z,42.805,6.029,13.2974,4.59978,2469.19,2019-5-17T10:48:46Z
2019-05-17T08:51:35Z,42.805,6.029,13.2976,4.59978,2469.176,2019-5-17T10:51:49Z
2019-05-17T08:54:38Z,42.805,6.029,13.2976,4.59976,2469.214,2019-5-17T10:54:52Z
2019-05-17T08:57:41Z,42.805,6.029,13.2974,4.59978,2469.19,2019-5-17T10:57:55Z
2019-05-17T09:00:44Z,42.805,6.029,13.2974,4.59973,2469.2,2019-5-17T11:00:58Z
2019-05-17T09:03:47Z,42.805,6.029,13.2978,4.59972,2469.214,2019-5-17T11:04:01Z
2019-05-17T09:06:50Z,42.805,6.029,13.2983,4.60001,2469.2,2019-5-17T11:07:03Z
2019-05-17T09:09:52Z,42.805,6.029,13.2968,4.59978,2469.214,2019-5-17T11:10:06Z
2019-05-17T09:12:55Z,42.805,6.029,13.2977,4.59981,2469.19,2019-5-17T11:13:09Z
2019-05-17T09:15:58Z,42.805,6.029,13.2974,4.59997,2469.153,2019-5-17T11:16:12Z
2019-05-17T09:19:01Z,42.805,6.029,13.2971,4.59976,2469.214,2019-5-17T11:19:15Z
2019-05-17T09:22:04Z,42.805,6.029,13.2977,4.59979,2469.2,2019-5-17T11:22:18Z
2019-05-17T09:25:07Z,42.805,6.029,13.2975,4.59976,2469.19,2019-5-17T11:25:21Z
2019-05-17T09:28:10Z,42.805,6.029,13.2986,4.59987,2469.181,2019-5-17T11:28:24Z
2019-05-17T09:31:13Z,42.805,6.029,13.2979,4.59980,2469.176,2019-5-17T11:31:27Z
2019-05-17T09:34:16Z,42.805,6.029,13.2974,4.59975,2469.153,2019-5-17T11:34:30Z
2019-05-17T09:37:22Z,42.805,6.029,13.2974,4.59981,2469.167,2019-5-17T11:37:36Z
2019-05-17T09:40:21Z,42.805,6.029,13.2974,4.59985,2469.167,2019-5-17T11:40:35Z
2019-05-17T09:43:24Z,42.805,6.029,13.3006,4.59995,2469.167,2019-5-17T11:43:38Z
2019-05-17T09:46:27Z,42.805,6.029,13.2990,4.59978,2469.167,2019-5-17T11:46:41Z
2019-05-17T09:49:30Z,42.805,6.029,13.2979,4.59975,2469.144,2019-5-17T11:49:44Z
2019-05-17T09:52:33Z,42.805,6.029,13.2983,4.59981,2469.167,2019-5-17T11:52:47Z
2019-05-17T09:55:36Z,42.805,6.029,13.2993,4.59986,2469.19,2019-5-17T11:55:50Z
2019-05-17T09:58:39Z,42.805,6.029,13.2989,4.59981,2469.167,2019-5-17T11:58:53Z
2019-05-17T10:01:42Z,42.805,6.029,13.2984,4.59981,2469.153,2019-5-17T12:01:56Z
2019-05-17T10:04:45Z,42.805,6.029,13.2990,4.59985,2469.12,2019-5-17T12:04:59Z
2019-05-17T10:07:48Z,42.805,6.029,13.2987,4.59986,2469.167,2019-5-17T12:08:02Z
2019-05-17T10:23:08Z,42.805,6.029,13.3003,4.59992,2469.19,2019-5-17T12:23:22Z
2019-05-17T10:26:11Z,42.805,6.029,13.2975,4.59986,2469.144,2019-5-17T12:26:25Z
2019-05-17T10:29:14Z,42.805,6.029,13.2980,4.59988,2469.153,2019-5-17T12:29:28Z
2019-05-17T11:13:08Z,42.805,6.029,13.2991,4.59981,2469.13,2019-5-17T13:13:22Z
2019-05-17T11:16:11Z,42.805,6.029,13.2993,4.59988,2469.12,2019-5-17T13:16:25Z
2019-05-17T11:19:14Z,42.805,6.029,13.2981,4.59986,2469.106,2019-5-17T13:19:28Z
2019-05-17T11:22:17Z,42.805,6.029,13.2989,4.60006,2469.144,2019-5-17T13:22:31Z
2019-05-17T11:25:20Z,42.805,6.029,13.3003,4.59993,2469.106,2019-5-17T13:25:34Z
2019-05-17T11:28:23Z,42.805,6.029,13.2995,4.59986,2469.12,2019-5-17T13:28:37Z
2019-05-17T11:31:26Z,42.805,6.029,13.3003,4.59999,2469.083,2019-5-17T13:31:40Z
2019-05-17T11:34:29Z,42.805,6.029,13.2992,4.59991,2469.106,2019-5-17T13:34:43Z
2019-05-17T11:37:32Z,42.805,6.029,13.2991,4.59993,2469.097,2019-5-17T13:37:46Z
2019-05-17T11:40:35Z,42.805,6.029,13.3000,4.59996,2469.097,2019-5-17T13:40:49Z
2019-05-17T11:43:38Z,42.805,6.029,13.3006,4.59998,2469.12,2019-5-17T13:43:52Z
2019-05-17T11:46:41Z,42.805,6.029,13.3004,4.59991,2469.097,2019-5-17T13:46:55Z
2019-05-17T11:49:44Z,42.805,6.029,13.2991,4.59991,2469.097,2019-5-17T13:49:58Z
2019-05-17T11:52:47Z,42.805,6.029,13.2989,4.59998,2469.097,2019-5-17T13:53:01Z
2019-05-17T11:55:50Z,42.805,6.029,13.2998,4.59994,2469.12,2019-5-17T13:56:04Z
2019-05-17T11:58:53Z,42.805,6.029,13.3005,4.59993,2469.097,2019-5-17T13:59:07Z
2019-05-17T12:01:56Z,42.805,6.029,13.2988,4.59994,2469.12,2019-5-17T14:02:09Z
2019-05-17T12:04:58Z,42.805,6.029,13.3012,4.60009,2469.073,2019-5-17T14:05:12Z
2019-05-17T12:08:01Z,42.805,6.029,13.3002,4.59990,2469.106,2019-5-17T14:08:15Z
2019-05-17T12:11:04Z,42.805,6.029,13.2990,4.59995,2469.12,2019-5-17T14:11:18Z
2019-05-17T12:14:07Z,42.805,6.029,13.2989,4.59990,2469.083,2019-5-17T14:14:21Z
2019-05-17T12:17:10Z,42.805,6.029,13.3000,4.59993,2469.097,2019-5-17T14:17:24Z
2019-05-17T12:20:13Z,42.805,6.029,13.3005,4.59990,2469.073,2019-5-17T14:20:27Z
2019-05-17T12:23:16Z,42.805,6.029,13.2991,4.59992,2469.097,2019-5-17T14:23:30Z
2019-05-17T12:26:19Z,42.805,6.029,13.2990,4.59988,2469.12,2019-5-17T14:26:33Z
2019-05-17T12:29:22Z,42.805,6.029,13.2995,4.59996,2469.111,2019-5-17T14:29:36Z
2019-05-17T12:32:25Z,42.805,6.029,13.2993,4.59993,2469.073,2019-5-17T14:32:39Z
2019-05-17T12:35:28Z,42.805,6.029,13.3006,4.59991,2469.097,2019-5-17T14:35:42Z
2019-05-17T12:38:31Z,42.805,6.029,13.2998,4.59985,2469.083,2019-5-17T14:38:45Z
2019-05-17T12:41:34Z,42.805,6.029,13.3004,4.60002,2469.097,2019-5-17T14:41:48Z
2019-05-17T12:44:37Z,42.805,6.029,13.3026,4.59993,2469.106,2019-5-17T14:44:51Z
2019-05-17T12:47:40Z,42.805,6.029,13.3007,4.60008,2469.097,2019-5-17T14:47:54Z
2019-05-17T12:50:43Z,42.805,6.029,13.2998,4.59996,2469.097,2019-5-17T14:50:57Z
2019-05-17T12:53:46Z,42.805,6.029,13.3009,4.60000,2469.097,2019-5-17T14:54:00Z
2019-05-17T12:56:49Z,42.805,6.029,13.2999,4.59988,2469.12,2019-5-17T14:57:03Z
2019-05-17T12:59:52Z,42.805,6.029,13.2990,4.59990,2469.12,2019-5-17T15:00:06Z
2019-05-17T13:02:55Z,42.805,6.029,13.2992,4.59996,2469.097,2019-5-17T15:03:09Z
2019-05-17T13:05:58Z,42.805,6.029,13.2997,4.59996,2469.097,2019-5-17T15:06:12Z
2019-05-17T13:09:01Z,42.805,6.029,13.3014,4.59989,2469.12,2019-5-17T15:09:14Z
2019-05-17T13:12:03Z,42.805,6.029,13.2990,4.59990,2469.097,2019-5-17T15:12:17Z
2019-05-17T13:15:06Z,42.805,6.029,13.3001,4.59990,2469.083,2019-5-17T15:15:20Z
2019-05-17T13:18:09Z,42.805,6.029,13.2994,4.59991,2469.097,2019-5-17T15:18:23Z
2019-05-17T13:21:12Z,42.805,6.029,13.2998,4.59996,2469.12,2019-5-17T15:21:26Z
2019-05-17T13:24:15Z,42.805,6.029,13.2986,4.59983,2469.106,2019-5-17T15:24:29Z
2019-05-17T13:27:18Z,42.805,6.029,13.2991,4.59993,2469.036,2019-5-17T15:27:32Z
2019-05-17T13:30:21Z,42.805,6.029,13.2990,4.60003,2469.12,2019-5-17T15:30:35Z
2019-05-17T13:33:24Z,42.805,6.029,13.2990,4.59995,2469.083,2019-5-17T15:33:38Z
2019-05-17T13:36:27Z,42.805,6.029,13.2983,4.59987,2469.12,2019-5-17T15:36:41Z
2019-05-17T13:39:30Z,42.805,6.029,13.2982,4.59998,2469.106,2019-5-17T15:39:44Z
2019-05-17T13:42:33Z,42.805,6.029,13.2989,4.59983,2469.144,2019-5-17T15:42:47Z
2019-05-17T13:45:36Z,42.805,6.029,13.2988,4.59976,2469.12,2019-5-17T15:45:50Z
2019-05-17T13:48:39Z,42.805,6.029,13.2982,4.59981,2469.12,2019-5-17T15:48:53Z
2019-05-17T13:51:42Z,42.805,6.029,13.2986,4.59987,2469.13,2019-5-17T15:51:56Z
2019-05-17T13:54:45Z,42.805,6.029,13.2991,4.59987,2469.144,2019-5-17T15:54:59Z
2019-05-17T13:57:48Z,42.805,6.029,13.2998,4.59983,2469.12,2019-5-17T15:58:02Z
2019-05-17T14:00:51Z,42.805,6.029,13.2993,4.59986,2469.167,2019-5-17T16:01:05Z
2019-05-17T14:03:54Z,42.805,6.029,13.3020,4.59982,2469.12,2019-5-17T16:04:08Z
2019-05-17T14:06:57Z,42.805,6.029,13.2995,4.59987,2469.153,2019-5-17T16:07:11Z
2019-05-17T14:10:00Z,42.805,6.029,13.2990,4.59984,2469.167,2019-5-17T16:10:13Z
2019-05-17T14:13:02Z,42.805,6.029,13.2983,4.59976,2469.167,2019-5-17T16:13:16Z
2019-05-17T14:16:05Z,42.805,6.029,13.2983,4.59986,2469.167,2019-5-17T16:16:19Z
2019-05-17T14:19:08Z,42.805,6.029,13.2988,4.59981,2469.13,2019-5-17T16:19:22Z
2019-05-17T14:22:11Z,42.805,6.029,13.2986,4.59984,2469.167,2019-5-17T16:22:25Z
2019-05-17T14:25:14Z,42.805,6.029,13.2981,4.59980,2469.167,2019-5-17T16:25:28Z
2019-05-17T14:28:17Z,42.805,6.029,13.2974,4.59980,2469.167,2019-5-17T16:28:31Z
2019-05-17T14:31:20Z,42.805,6.029,13.2987,4.59986,2469.153,2019-5-17T16:31:34Z
2019-05-17T14:34:23Z,42.805,6.029,13.2986,4.59987,2469.153,2019-5-17T16:34:37Z
2019-05-17T14:37:26Z,42.805,6.029,13.2991,4.59996,2469.19,2019-5-17T16:37:40Z
2019-05-17T14:40:29Z,42.805,6.029,13.2986,4.59987,2469.19,2019-5-17T16:40:43Z
2019-05-17T14:43:32Z,42.805,6.029,13.2987,4.59983,2469.153,2019-5-17T16:43:46Z
2019-05-17T14:46:35Z,42.805,6.029,13.2991,4.60004,2469.2,2019-5-17T16:46:49Z
2019-05-17T14:49:38Z,42.805,6.029,13.2989,4.59991,2469.214,2019-5-17T16:49:52Z
2019-05-17T14:52:41Z,42.805,6.029,13.2994,4.59985,2469.167,2019-5-17T16:52:55Z
2019-05-17T14:55:44Z,42.805,6.029,13.2986,4.59986,2469.19,2019-5-17T16:55:58Z
2019-05-17T14:58:47Z,42.805,6.029,13.2986,4.59994,2469.214,2019-5-17T16:59:01Z
2019-05-17T15:01:50Z,42.805,6.029,13.2989,4.59987,2469.2,2019-5-17T17:02:04Z
2019-05-17T15:04:53Z,42.805,6.029,13.2985,4.59985,2469.214,2019-5-17T17:05:07Z
2019-05-17T15:07:56Z,42.805,6.029,13.2995,4.59990,2469.223,2019-5-17T17:08:10Z
2019-05-17T15:10:59Z,42.805,6.029,13.2994,4.59991,2469.176,2019-5-17T17:11:13Z
2019-05-17T15:14:02Z,42.805,6.029,13.3006,4.59982,2469.214,2019-5-17T17:14:16Z
2019-05-17T15:17:05Z,42.805,6.029,13.2990,4.59988,2469.237,2019-5-17T17:17:18Z
2019-05-17T15:20:07Z,42.805,6.029,13.3008,4.59981,2469.237,2019-5-17T17:20:21Z
2019-05-17T15:23:10Z,42.805,6.029,13.2993,4.59984,2469.214,2019-5-17T17:23:24Z
2019-05-17T15:26:13Z,42.805,6.029,13.2988,4.59991,2469.26,2019-5-17T17:26:27Z
2019-05-17T15:29:16Z,42.805,6.029,13.3013,4.59999,2469.237,2019-5-17T17:29:30Z
2019-05-17T15:32:19Z,42.805,6.029,13.3000,4.59988,2469.26,2019-5-17T17:32:33Z
2019-05-17T15:35:22Z,42.805,6.029,13.2991,4.59987,2469.237,2019-5-17T17:35:36Z
2019-05-17T15:38:25Z,42.805,6.029,13.2984,4.59999,2469.284,2019-5-17T17:38:39Z
2019-05-17T15:41:28Z,42.805,6.029,13.3006,4.59991,2469.26,2019-5-17T17:41:42Z
2019-05-17T15:44:31Z,42.805,6.029,13.3002,4.59991,2469.26,2019-5-17T17:44:45Z
2019-05-17T15:47:34Z,42.805,6.029,13.2992,4.59989,2469.246,2019-5-17T17:47:48Z
2019-05-17T15:50:37Z,42.805,6.029,13.2987,4.59987,2469.26,2019-5-17T17:50:51Z
2019-05-17T15:53:40Z,42.805,6.029,13.2980,4.59986,2469.284,2019-5-17T17:53:54Z
2019-05-17T15:56:43Z,42.805,6.029,13.2987,4.59981,2469.284,2019-5-17T17:56:57Z
2019-05-17T15:59:46Z,42.805,6.029,13.2978,4.59983,2469.26,2019-5-17T18:00:00Z
2019-05-17T16:02:49Z,42.805,6.029,13.2986,4.59983,2469.307,2019-5-17T18:03:03Z
2019-05-17T16:05:52Z,42.805,6.029,13.3001,4.59983,2469.284,2019-5-17T18:06:06Z
2019-05-17T16:08:55Z,42.805,6.029,13.2986,4.59978,2469.27,2019-5-17T18:09:09Z
2019-05-17T16:11:58Z,42.805,6.029,13.2976,4.60002,2469.284,2019-5-17T18:12:12Z
2019-05-17T16:15:01Z,42.805,6.029,13.2982,4.59976,2469.284,2019-5-17T18:15:15Z
2019-05-17T16:18:04Z,42.805,6.029,13.2976,4.59982,2469.307,2019-5-17T18:18:18Z
2019-05-17T16:21:07Z,42.805,6.029,13.2979,4.59979,2469.307,2019-5-17T18:21:21Z
2019-05-17T16:24:10Z,42.805,6.029,13.2980,4.59984,2469.284,2019-5-17T18:24:23Z
2019-05-17T16:27:12Z,42.805,6.029,13.2973,4.59975,2469.316,2019-5-17T18:27:26Z
2019-05-17T16:30:15Z,42.805,6.029,13.2975,4.59974,2469.307,2019-5-17T18:30:29Z
2019-05-17T16:33:18Z,42.805,6.029,13.2971,4.59975,2469.307,2019-5-17T18:33:32Z
2019-05-17T16:36:21Z,42.805,6.029,13.2970,4.59996,2469.33,2019-5-17T18:36:35Z
2019-05-17T16:39:24Z,42.805,6.029,13.2980,4.59981,2469.354,2019-5-17T18:39:38Z
2019-05-17T16:42:27Z,42.805,6.029,13.2969,4.59978,2469.316,2019-5-17T18:42:41Z
2019-05-17T16:45:30Z,42.805,6.029,13.2979,4.59976,2469.34,2019-5-17T18:45:44Z
2019-05-17T16:48:33Z,42.805,6.029,13.2976,4.59978,2469.377,2019-5-17T18:48:47Z
2019-05-17T16:51:36Z,42.805,6.029,13.2974,4.59976,2469.354,2019-5-17T18:51:50Z
2019-05-17T16:54:39Z,42.805,6.029,13.2971,4.59976,2469.354,2019-5-17T18:54:53Z
2019-05-17T16:57:42Z,42.805,6.029,13.2971,4.59976,2469.354,2019-5-17T18:57:56Z
2019-05-17T17:00:45Z,42.805,6.029,13.2968,4.59975,2469.354,2019-5-17T19:00:59Z
2019-05-17T17:03:48Z,42.805,6.029,13.2984,4.59973,2469.33,2019-5-17T19:04:02Z
2019-05-17T17:06:51Z,42.805,6.029,13.2973,4.59981,2469.363,2019-5-17T19:07:05Z
2019-05-17T17:09:54Z,42.805,6.029,13.2982,4.59973,2469.363,2019-5-17T19:10:08Z
2019-05-17T17:12:57Z,42.805,6.029,13.2974,4.59978,2469.354,2019-5-17T19:13:11Z
2019-05-17T17:16:00Z,42.805,6.029,13.2977,4.59976,2469.354,2019-5-17T19:16:14Z
2019-05-17T17:19:03Z,42.805,6.029,13.2975,4.59978,2469.354,2019-5-17T19:19:17Z
2019-05-17T17:22:06Z,42.805,6.029,13.2974,4.59978,2469.4,2019-5-17T19:22:20Z
2019-05-17T17:25:09Z,42.805,6.029,13.2975,4.59976,2469.33,2019-5-17T19:25:23Z
2019-05-17T17:28:12Z,42.805,6.029,13.2971,4.59975,2469.386,2019-5-17T19:28:26Z
2019-05-17T17:31:14Z,42.805,6.029,13.2977,4.59976,2469.354,2019-5-17T19:31:28Z
2019-05-17T17:34:17Z,42.805,6.029,13.2968,4.59979,2469.363,2019-5-17T19:34:31Z
2019-05-17T17:37:20Z,42.805,6.029,13.2973,4.59975,2469.4,2019-5-17T19:37:34Z
2019-05-17T17:40:23Z,42.805,6.029,13.2969,4.59976,2469.386,2019-5-17T19:40:37Z
2019-05-17T17:43:26Z,42.805,6.029,13.2975,4.59977,2469.4,2019-5-17T19:43:40Z
2019-05-17T17:46:29Z,42.805,6.029,13.2983,4.59980,2469.424,2019-5-17T19:46:43Z
2019-05-17T17:49:32Z,42.805,6.029,13.2972,4.59974,2469.424,2019-5-17T19:49:46Z
2019-05-17T17:52:35Z,42.805,6.029,13.2974,4.59973,2469.386,2019-5-17T19:52:49Z
2019-05-17T17:55:38Z,42.805,6.029,13.2986,4.59978,2469.4,2019-5-17T19:55:52Z
2019-05-17T17:58:41Z,42.805,6.029,13.2985,4.59976,2469.4,2019-5-17T19:58:55Z
2019-05-17T18:01:44Z,42.805,6.029,13.2979,4.59975,2469.386,2019-5-17T20:01:58Z
2019-05-17T18:04:47Z,42.805,6.029,13.2987,4.59976,2469.4,2019-5-17T20:05:01Z
2019-05-17T18:07:50Z,42.805,6.029,13.2973,4.59978,2469.4,2019-5-17T20:08:04Z
2019-05-17T18:10:53Z,42.805,6.029,13.2974,4.59975,2469.386,2019-5-17T20:11:07Z
2019-05-17T18:13:56Z,42.805,6.029,13.2976,4.59976,2469.424,2019-5-17T20:14:10Z
2019-05-17T18:16:59Z,42.805,6.029,13.2989,4.59980,2469.386,2019-5-17T20:17:13Z
2019-05-17T18:20:02Z,42.805,6.029,13.2964,4.59967,2469.386,2019-5-17T20:20:16Z
2019-05-17T18:23:05Z,42.805,6.029,13.2974,4.59974,2469.386,2019-5-17T20:23:19Z
2019-05-17T18:26:08Z,42.805,6.029,13.2974,4.59976,2469.4,2019-5-17T20:26:22Z
2019-05-17T18:29:11Z,42.805,6.029,13.2979,4.59975,2469.4,2019-5-17T20:29:25Z
2019-05-17T18:32:14Z,42.805,6.029,13.2979,4.59972,2469.41,2019-5-17T20:32:28Z
2019-05-17T18:35:17Z,42.805,6.029,13.2980,4.59977,2469.456,2019-5-17T20:35:30Z
2019-05-17T18:38:19Z,42.805,6.029,13.2988,4.59978,2469.4,2019-5-17T20:38:33Z
2019-05-17T18:41:22Z,42.805,6.029,13.2971,4.59971,2469.41,2019-5-17T20:41:36Z
2019-05-17T18:44:25Z,42.805,6.029,13.2968,4.59979,2469.34,2019-5-17T20:44:39Z
2019-05-17T18:47:28Z,42.805,6.029,13.2979,4.59976,2469.386,2019-5-17T20:47:42Z
2019-05-17T18:50:31Z,42.805,6.029,13.2976,4.59971,2469.424,2019-5-17T20:50:45Z
2019-05-17T18:53:34Z,42.805,6.029,13.2983,4.59985,2469.4,2019-5-17T20:53:48Z
2019-05-17T18:56:37Z,42.805,6.029,13.2985,4.59978,2469.386,2019-5-17T20:56:51Z
2019-05-17T18:59:40Z,42.805,6.029,13.2992,4.59978,2469.424,2019-5-17T20:59:54Z
2019-05-17T19:02:43Z,42.805,6.029,13.2982,4.59979,2469.4,2019-5-17T21:02:57Z
2019-05-17T19:05:46Z,42.805,6.029,13.2969,4.59976,2469.424,2019-5-17T21:06:00Z
2019-05-17T19:08:49Z,42.805,6.029,13.2980,4.59968,2469.386,2019-5-17T21:09:03Z
2019-05-17T19:11:52Z,42.805,6.029,13.2974,4.59973,2469.424,2019-5-17T21:12:06Z
2019-05-17T19:14:55Z,42.805,6.029,13.2975,4.59968,2469.41,2019-5-17T21:15:09Z
2019-05-17T19:17:58Z,42.805,6.029,13.2976,4.59976,2469.4,2019-5-17T21:18:12Z
2019-05-17T19:21:01Z,42.805,6.029,13.2979,4.59979,2469.4,2019-5-17T21:21:15Z
2019-05-17T19:24:04Z,42.805,6.029,13.2976,4.59979,2469.386,2019-5-17T21:24:18Z
2019-05-17T19:27:07Z,42.805,6.029,13.2976,4.59973,2469.4,2019-5-17T21:27:21Z
2019-05-17T19:30:10Z,42.805,6.029,13.2971,4.59972,2469.424,2019-5-17T21:30:24Z
2019-05-17T19:33:13Z,42.805,6.029,13.2972,4.59974,2469.41,2019-5-17T21:33:27Z
2019-05-17T19:36:16Z,42.805,6.029,13.2972,4.59978,2469.424,2019-5-17T21:36:30Z
2019-05-17T19:39:19Z,42.805,6.029,13.2975,4.59975,2469.386,2019-5-17T21:39:32Z
2019-05-17T19:42:21Z,42.805,6.029,13.2974,4.59976,2469.4,2019-5-17T21:42:35Z
2019-05-17T19:45:24Z,42.805,6.029,13.2982,4.59976,2469.386,2019-5-17T21:45:38Z
2019-05-17T19:48:27Z,42.805,6.029,13.2976,4.59978,2469.4,2019-5-17T21:48:41Z
2019-05-17T19:51:30Z,42.805,6.029,13.2985,4.59973,2469.41,2019-5-17T21:51:44Z
2019-05-17T19:54:33Z,42.805,6.029,13.2984,4.59979,2469.4,2019-5-17T21:54:47Z
2019-05-17T19:57:36Z,42.805,6.029,13.2974,4.59979,2469.424,2019-5-17T21:57:50Z
2019-05-17T20:00:39Z,42.805,6.029,13.2967,4.59975,2469.424,2019-5-17T22:00:53Z
2019-05-17T20:03:42Z,42.805,6.029,13.2974,4.59973,2469.424,2019-5-17T22:03:56Z
2019-05-17T20:06:45Z,42.805,6.029,13.2979,4.59980,2469.41,2019-5-17T22:06:59Z
2019-05-17T20:09:48Z,42.805,6.029,13.2979,4.59973,2469.41,2019-5-17T22:10:02Z
2019-05-17T20:12:51Z,42.805,6.029,13.2974,4.59973,2469.4,2019-5-17T22:13:05Z
2019-05-17T20:15:54Z,42.805,6.029,13.2971,4.59978,2469.386,2019-5-17T22:16:08Z
2019-05-17T20:18:57Z,42.805,6.029,13.2984,4.59982,2469.386,2019-5-17T22:19:11Z
2019-05-17T20:22:00Z,42.805,6.029,13.2980,4.59981,2469.424,2019-5-17T22:22:14Z
2019-05-17T20:25:03Z,42.805,6.029,13.2985,4.59976,2469.41,2019-5-17T22:25:17Z
2019-05-17T20:28:06Z,42.805,6.029,13.2983,4.59980,2469.424,2019-5-17T22:28:20Z
2019-05-17T20:31:09Z,42.805,6.029,13.2979,4.59979,2469.424,2019-5-17T22:31:23Z
2019-05-17T20:34:12Z,42.805,6.029,13.2972,4.59979,2469.4,2019-5-17T22:34:26Z
2019-05-17T20:37:15Z,42.805,6.029,13.2992,4.59980,2469.4,2019-5-17T22:37:29Z
2019-05-17T20:40:18Z,42.805,6.029,13.2980,4.59980,2469.386,2019-5-17T22:40:32Z
2019-05-17T20:43:21Z,42.805,6.029,13.2990,4.59976,2469.424,2019-5-17T22:43:35Z
2019-05-17T20:46:24Z,42.805,6.029,13.2982,4.59980,2469.4,2019-5-17T22:46:38Z
2019-05-17T20:49:26Z,42.805,6.029,13.2971,4.59977,2469.424,2019-5-17T22:49:40Z
2019-05-17T20:52:29Z,42.805,6.029,13.2973,4.59975,2469.386,2019-5-17T22:52:43Z
2019-05-17T20:55:32Z,42.805,6.029,13.2974,4.59976,2469.4,2019-5-17T22:55:46Z
2019-05-17T20:58:35Z,42.805,6.029,13.2977,4.59975,2469.4,2019-5-17T22:58:49Z
2019-05-17T21:01:38Z,42.805,6.029,13.2970,4.59978,2469.4,2019-5-17T23:01:52Z
2019-05-17T21:04:41Z,42.805,6.029,13.2981,4.59973,2469.354,2019-5-17T23:04:55Z
2019-05-17T21:07:44Z,42.805,6.029,13.2974,4.59978,2469.377,2019-5-17T23:07:58Z
2019-05-17T21:10:47Z,42.805,6.029,13.2976,4.59981,2469.4,2019-5-17T23:11:01Z
2019-05-17T21:13:50Z,42.805,6.029,13.2977,4.59974,2469.377,2019-5-17T23:14:04Z
2019-05-17T21:16:53Z,42.805,6.029,13.2977,4.59979,2469.377,2019-5-17T23:17:07Z
2019-05-17T21:19:56Z,42.805,6.029,13.2983,4.59979,2469.386,2019-5-17T23:20:10Z
2019-05-17T21:22:59Z,42.805,6.029,13.2978,4.59977,2469.363,2019-5-17T23:23:13Z
2019-05-17T21:26:02Z,42.805,6.029,13.2974,4.59988,2469.377,2019-5-17T23:26:16Z
2019-05-17T21:29:05Z,42.805,6.029,13.2983,4.59981,2469.363,2019-5-17T23:29:19Z
2019-05-17T21:32:08Z,42.805,6.029,13.3009,4.59983,2469.4,2019-5-17T23:32:22Z
2019-05-17T21:35:11Z,42.805,6.029,13.2980,4.59984,2469.363,2019-5-17T23:35:25Z
2019-05-17T21:38:14Z,42.805,6.029,13.2973,4.59978,2469.34,2019-5-17T23:38:28Z
2019-05-17T21:41:17Z,42.805,6.029,13.2979,4.59986,2469.4,2019-5-17T23:41:31Z
2019-05-17T21:44:20Z,42.805,6.029,13.2980,4.59988,2469.377,2019-5-17T23:44:34Z
2019-05-17T21:47:23Z,42.805,6.029,13.2984,4.59985,2469.377,2019-5-17T23:47:37Z
2019-05-17T21:50:26Z,42.805,6.029,13.2996,4.59981,2469.377,2019-5-17T23:50:39Z
2019-05-17T21:53:28Z,42.805,6.029,13.2991,4.59985,2469.363,2019-5-17T23:53:42Z
2019-05-17T21:56:31Z,42.805,6.029,13.2982,4.59991,2469.377,2019-5-17T23:56:45Z
2019-05-17T21:59:34Z,42.805,6.029,13.2980,4.59991,2469.377,2019-5-17T23:59:48Z
2019-05-17T22:02:37Z,42.805,6.029,13.2986,4.59984,2469.316,2019-5-18T00:02:51Z
2019-05-17T22:05:40Z,42.805,6.029,13.2990,4.59988,2469.34,2019-5-18T00:05:54Z
2019-05-17T22:08:43Z,42.805,6.029,13.2990,4.59984,2469.377,2019-5-18T00:08:57Z
2019-05-17T22:11:46Z,42.805,6.029,13.2990,4.59989,2469.377,2019-5-18T00:12:00Z
2019-05-17T22:14:49Z,42.805,6.029,13.2985,4.59991,2469.363,2019-5-18T00:15:03Z
2019-05-17T22:17:52Z,42.805,6.029,13.2990,4.59983,2469.354,2019-5-18T00:18:06Z
2019-05-17T22:20:55Z,42.805,6.029,13.2998,4.59983,2469.377,2019-5-18T00:21:09Z
2019-05-17T22:23:58Z,42.805,6.029,13.2986,4.59973,2469.363,2019-5-18T00:24:12Z
2019-05-17T22:27:01Z,42.805,6.029,13.2987,4.59971,2469.354,2019-5-18T00:27:15Z
2019-05-17T22:30:04Z,42.805,6.029,13.2976,4.59991,2469.354,2019-5-18T00:30:18Z
2019-05-17T22:33:07Z,42.805,6.029,13.2984,4.59979,2469.354,2019-5-18T00:33:21Z
2019-05-17T22:36:10Z,42.805,6.029,13.2990,4.59984,2469.354,2019-5-18T00:36:24Z
2019-05-17T22:39:13Z,42.805,6.029,13.2975,4.59983,2469.354,2019-5-18T00:39:27Z
2019-05-17T22:42:16Z,42.805,6.029,13.2994,4.59979,2469.34,2019-5-18T00:42:30Z
2019-05-17T22:45:19Z,42.805,6.029,13.2980,4.59981,2469.34,2019-5-18T00:45:33Z
2019-05-17T22:48:22Z,42.805,6.029,13.2978,4.59976,2469.354,2019-5-18T00:48:36Z
2019-05-17T22:51:24Z,42.805,6.029,13.2977,4.59986,2469.316,2019-5-18T00:51:38Z
2019-05-17T22:54:27Z,42.805,6.029,13.2986,4.59982,2469.34,2019-5-18T00:54:41Z
2019-05-17T22:57:30Z,42.805,6.029,13.2975,4.59982,2469.316,2019-5-18T00:57:44Z
2019-05-17T23:00:33Z,42.805,6.029,13.2978,4.59986,2469.33,2019-5-18T01:00:47Z
2019-05-17T23:03:36Z,42.805,6.029,13.2988,4.59986,2469.33,2019-5-18T01:03:50Z
2019-05-17T23:06:39Z,42.805,6.029,13.2996,4.59985,2469.316,2019-5-18T01:06:53Z
2019-05-17T23:09:42Z,42.805,6.029,13.2974,4.59980,2469.316,2019-5-18T01:09:56Z
2019-05-17T23:12:45Z,42.805,6.029,13.2975,4.59986,2469.33,2019-5-18T01:12:59Z
2019-05-17T23:15:48Z,42.805,6.029,13.2987,4.59983,2469.354,2019-5-18T01:16:02Z
2019-05-17T23:18:51Z,42.805,6.029,13.2986,4.59986,2469.27,2019-5-18T01:19:05Z
2019-05-17T23:21:54Z,42.805,6.029,13.2986,4.59987,2469.293,2019-5-18T01:22:08Z
2019-05-17T23:24:57Z,42.805,6.029,13.2986,4.59980,2469.307,2019-5-18T01:25:11Z
2019-05-17T23:28:00Z,42.805,6.029,13.2985,4.59984,2469.293,2019-5-18T01:28:14Z